Temperature
0 0 -0 -0 -1 -1 -1 -1 -2 -2 -2 -2 -2 -1 -1 -1 -1 -1 -1 -1 -1 -1 -1 -0 -0 0 1 1 1 1 1 1 1 1 2 2 3 4
-0 -1 -1 -1 -1 -1 -2 -2 -2 -2 -3 -3 -2 -2 -2 -2 -2 -2 -1 -1 -1 -1 -1 -1 -1 -1 -0 0 0 1 1 1 1 1 1 1 2 3
-1 -1 -2 -2 -2 -2 -2 -2 -3 -3 -3 -3 -3 -3 -3 -3 -2 -2 -2 -2 -2 -2 -2 -2 -1 -1 -1 -1 -0 -0 0 0 0 0 1 1 1 2
-2 -2 -2 -3 -3 -3 -3 -3 -3 -3 -4 -4 -4 -3 -3 -3 -3 -3 -2 -2 -2 -2 -2 -2 -2 -2 -1 -1 -1 -1 -1 -1 -0 -0 -0 0 0 1
-3 -3 -3 -3 -3 -3 -4 -4 -4 -4 -4 -4 -4 -4 -4 -4 -3 -3 -3 -3 -3 -2 -2 -2 -2 -2 -2 -2 -2 -1 -1 -1 -1 -1 -1 -1 -0 0
-3 -3 -3 -4 -4 -4 -4 -4 -4 -4 -4 -4 -4 -4 -4 -4 -4 -4 -3 -3 -3 -3 -3 -3 -3 -3 -2 -2 -2 -2 -2 -2 -2 -2 -1 -1 -1 -1
-4 -4 -4 -4 -4 -4 -4 -4 -4 -4 -4 -4 -4 -4 -4 -4 -4 -4 -4 -4 -4 -3 -3 -3 -3 -3 -2 -2 -2 -2 -2 -2 -2 -2 -2 -2 -1 -1
-4 -4 -4 -5 -5 -5 -5 -5 -5 -5 -5 -5 -5 -5 -5 -5 -5 -5 -5 -5 -4 -4 -4 -3 -3 -3 -3 -3 -2 -2 -2 -2 -2 -2 -2 -2 -2 -2
-5 -5 -5 -5 -5 -5 -5 -5 -5 -5 -5 -5 -5 -5 -5 -5 -5 -5 -5 -5 -5 -4 -4 -4 -4 -4 -3 -3 -3 -3 -3 -3 -3 -3 -3 -3 -2 -2
-5 -5 -5 -5 -5 -5 -5 -5 -5 -5 -5 -5 -5 -5 -5 -5 -5 -5 -5 -5 -5 -4 -4 -4 -4 -4 -4 -3 -3 -3 -3 -3 -3 -3 -3 -3 -3 -3
-5 -5 -6 -6 -6 -6 -6 -6 -6 -5 -5 -5 -5 -5 -5 -5 -5 -5 -5 -5 -5 -5 -4 -4 -4 -4 -4 -4 -4 -3 -3 -4 -4 -4 -3 -3 -3 -3
-6 -6 -6 -6 -6 -6 -6 -6 -6 -6 -6 -5 -5 -5 -5 -5 -5 -6 -6 -5 -5 -5 -5 -5 -4 -4 -5 -4 -4 -3 -4 -4 -4 -4 -4 -4 -4 -4
-6 -6 -6 -6 -6 -6 -6 -6 -6 -6 -6 -6 -6 -6 -6 -6 -6 -6 -6 -6 -6 -5 -5 -5 -5 -5 -5 -5 -4 -4 -4 -4 -4 -4 -4 -4 -4 -4
-6 -6 -6 -6 -6 -6 -6 -6 -6 -6 -6 -6 -7 -7 -6 -6 -6 -6 -6 -6 -6 -6 -6 -6 -6 -5 -5 -5 -5 -5 -4 -4 -4 -4 -4 -4 -4 -4
-7 -7 -6 -6 -6 -6 -6 -7 -7 -7 -7 -7 -7 -7 -7 -7 -7 -6 -6 -6 -6 -6 -6 -6 -6 -6 -6 -6 -6 -5 -5 -5 -5 -5 -5 -5 -5 -5
-7 -7 -7 -7 -7 -7 -7 -7 -7 -7 -8 -8 -8 -7 -7 -7 -7 -7 -7 -7 -7 -6 -6 -6 -6 -6 -6 -6 -6 -6 -6 -6 -5 -5 -5 -5 -5 -5
-7 -7 -7 -7 -7 -7 -7 -8 -8 -8 -8 -8 -8 -8 -8 -8 -7 -7 -7 -7 -7 -7 -6 -6 -6 -6 -6 -6 -6 -6 -6 -6 -6 -6 -6 -6 -6 -6
-7 -8 -8 -8 -8 -8 -8 -8 -8 -8 -8 -8 -8 -8 -8 -8 -8 -8 -8 -8 -8 -7 -7 -7 -7 -7 -7 -7 -6 -6 -6 -6 -6 -6 -6 -6 -6 -6
-8 -8 -9 -9 -9 -9 -9 -9 -9 -9 -9 -9 -9 -9 -8 -8 -8 -8 -8 -8 -8 -8 -7 -7 -7 -7 -7 -7 -6 -6 -6 -6 -7 -7 -7 -7 -6 -6
-9 -9 -9 -9 -9 -9 -9 -9 -9 -9 -9 -9 -9 -9 -9 -9 -9 -9 -8 -8 -8 -8 -8 -8 -8 -8 -8 -7 -7 -7 -7 -7 -7 -7 -7 -7 -7 -7
-10 -10 -10 -10 -10 -9 -9 -9 -9 -9 -9 -9 -9 -9 -9 -9 -9 -9 -9 -9 -9 -8 -8 -8 -8 -8 -8 -8 -8 -7 -7 -7 -7 -7 -7 -7 -7 -7
-10 -10 -10 -10 -10 -10 -10 -10 -10 -10 -9 -9 -9 -9 -9 -9 -9 -9 -9 -9 -9 -9 -9 -8 -8 -8 -8 -8 -8 -8 -7 -7 -8 -8 -8 -8 -8 -8
-11 -11 -10 -10 -10 -10 -10 -10 -10 -10 -10 -10 -10 -10 -9 -9 -9 -9 -9 -9 -9 -9 -9 -9 -8 -8 -8 -8 -8 -8 -8 -8 -8 -8 -8 -8 -8 -8
Wind_Speed
9 10 9 8 8 8 8 9 11 17 14 7 5 6 9 13 18 18 17 23 27 28 28 29 29 29 29 29 29 28 28 28 28 28 30 32 33 34
8 9 9 8 8 8 8 8 9 13 17 8 6 7 9 12 21 19 17 26 29 29 29 29 29 29 29 29 28 28 28 28 28 28 29 30 31 33
10 10 11 10 9 8 8 8 9 10 17 13 7 7 9 12 13 14 17 16 19 27 29 29 29 29 29 28 28 29 28 28 28 28 29 30 30 31
12 11 12 11 11 9 8 9 10 10 14 19 11 8 10 10 11 12 12 14 13 24 28 28 28 28 28 28 28 27 27 27 28 28 28 29 29 30
12 12 12 11 12 10 10 11 10 12 11 15 15 10 9 9 10 11 13 11 13 19 24 25 26 27 27 27 27 26 26 25 26 27 27 28 28 29
12 12 12 12 12 12 12 12 12 12 12 13 14 12 9 8 8 9 11 9 11 11 16 19 22 25 26 26 26 25 23 23 24 25 26 26 26 27
12 11 12 15 19 17 15 11 11 11 11 12 13 12 10 7 7 7 11 10 10 9 9 11 10 10 12 19 22 23 23 24 24 25 25 25 25 25
12 11 12 15 19 24 26 25 21 16 12 12 13 13 12 9 9 9 11 12 11 5 7 9 7 9 9 7 18 23 24 24 24 24 24 24 24 24
11 11 12 13 19 12 19 24 22 25 24 17 15 15 13 11 11 12 12 13 13 7 6 10 7 10 9 11 21 22 22 23 23 22 23 22 22 23
11 12 12 12 13 15 13 14 14 14 17 14 13 14 14 13 13 14 15 14 13 10 9 11 9 9 9 8 18 22 22 22 22 22 21 21 20 20
11 12 13 12 21 25 17 14 14 13 18 23 24 23 25 25 20 11 10 11 12 8 7 7 7 7 7 8 12 20 21 21 20 20 19 19 18 17
10 11 18 20 23 25 16 13 15 13 12 14 15 17 15 16 21 13 10 11 11 8 6 6 5 4 5 5 6 7 9 15 18 18 18 17 16 9
11 10 10 22 26 26 23 14 18 17 12 11 10 9 9 9 9 9 9 10 11 9 4 5 4 5 5 4 3 4 5 5 6 8 12 15 15 11
12 10 12 24 26 26 20 19 24 20 8 8 8 9 8 8 8 8 9 10 10 11 7 7 6 6 6 6 5 3 3 4 5 5 4 9 11 13
13 21 24 27 25 17 18 22 18 9 8 9 9 9 8 8 7 7 7 8 8 8 8 9 9 7 7 7 5 4 3 3 4 5 4 4 4 4
14 18 24 23 18 16 15 12 8 8 9 9 9 8 7 6 7 6 6 6 6 6 7 8 9 8 8 7 6 5 4 3 3 4 4 4 3 4
15 11 8 8 7 7 8 8 7 7 8 7 8 8 8 7 7 5 5 5 6 6 5 4 5 6 7 6 6 6 5 5 4 4 4 4 4 4
18 9 9 9 9 9 9 8 7 8 8 7 7 8 8 7 7 6 6 6 6 6 5 4 3 3 3 5 8 7 6 5 4 5 4 5 5 4
11 9 10 10 10 10 9 9 9 8 7 7 8 8 8 7 7 7 6 6 6 6 5 4 4 4 5 5 5 8 6 5 4 5 5 5 5 4
8 9 10 10 10 10 9 9 9 8 7 7 8 7 7 7 7 7 6 6 6 5 5 4 5 6 7 6 4 4 9 6 5 5 5 4 3 4
9 10 10 10 10 10 10 9 9 9 9 8 8 8 7 7 7 7 6 9 7 5 6 6 7 9 5 3 3 4 4 8 8 5 4 4 3 3
10 10 10 10 10 10 10 9 9 9 9 8 8 7 7 7 7 7 6 6 6 6 7 6 4 4 5 6 6 5 4 3 6 10 10 8 5 5
11 11 10 10 10 9 9 10 10 9 9 8 8 7 7 7 6 7 7 6 6 6 6 5 3 4 5 6 6 5 5 4 3 4 5 10 13 11
Wind_Direction
267 267 268 267 262 261 261 261 277 291 289 261 249 245 255 261 268 271 263 272 278 280 280 280 279 278 277 276 273 270 268 268 269 271 272 272 271 268
270 269 268 269 266 262 261 262 261 275 286 278 256 247 255 270 273 274 267 275 278 280 280 279 278 277 275 274 273 271 268 266 266 268 270 271 271 269
276 275 272 270 269 266 262 263 265 268 281 286 266 256 251 258 268 268 266 267 270 275 277 277 275 274 273 272 271 271 270 268 267 268 269 270 270 269
277 275 275 276 270 267 265 266 268 266 274 285 283 270 258 256 260 262 267 268 262 270 274 275 275 273 273 272 270 270 269 268 267 267 268 269 270 271
273 272 273 273 273 270 267 270 270 272 269 277 283 276 269 264 263 264 264 264 266 270 273 274 273 273 273 272 271 270 269 267 266 266 266 267 268 268
271 269 269 267 268 270 272 269 270 271 272 275 280 280 272 260 259 266 271 261 263 266 269 269 271 272 271 272 271 271 270 269 269 268 266 266 266 266
274 270 268 274 278 282 282 276 273 274 276 279 282 284 281 272 265 265 274 274 266 257 258 260 263 262 266 269 271 273 271 269 267 267 267 266 266 266
281 276 275 281 284 288 289 290 288 284 283 280 281 279 279 273 271 271 274 276 276 239 242 256 244 253 253 248 262 267 268 268 266 265 265 266 266 265
281 281 286 285 292 284 285 287 285 283 282 280 278 278 278 275 274 273 269 268 269 252 244 263 249 255 253 255 263 264 265 265 265 264 263 264 265 264
277 276 276 277 278 283 275 273 270 271 273 274 268 269 268 267 261 266 270 270 266 257 240 260 255 254 256 248 260 261 263 263 264 264 263 261 263 264
279 276 278 275 282 289 288 282 280 276 278 278 277 277 277 280 279 277 271 272 273 260 227 241 249 251 252 252 254 257 259 261 262 262 262 262 261 262
282 275 283 285 287 290 287 282 282 281 276 278 279 280 279 280 282 275 270 273 275 270 224 223 240 236 256 249 244 246 253 259 260 261 262 263 263 262
289 284 277 288 290 290 290 285 284 289 283 279 280 276 271 266 263 258 252 257 265 262 228 214 233 227 239 259 258 236 228 238 251 259 263 262 262 260
294 288 283 290 291 291 293 291 293 299 293 286 281 278 275 272 267 261 258 254 253 257 248 233 243 239 243 253 253 241 234 233 230 237 237 257 263 263
292 292 295 296 297 295 292 294 297 293 288 285 281 278 271 269 270 270 265 260 260 256 250 240 243 242 240 247 243 224 232 242 224 227 229 225 228 237
294 293 296 294 291 287 290 291 281 273 278 277 277 276 276 272 272 268 269 271 271 269 251 240 237 236 242 239 238 233 215 224 226 219 224 228 221 214
302 297 291 288 279 274 274 273 270 272 278 273 276 279 279 276 273 264 262 261 261 267 269 257 240 235 234 229 235 232 225 226 222 206 203 227 229 217
310 303 298 293 289 286 284 281 276 273 272 271 274 277 278 275 273 268 260 255 260 261 256 251 246 238 239 244 228 231 227 226 218 204 202 219 238 223
307 296 292 289 287 285 280 278 278 275 272 271 274 274 274 273 274 270 261 257 256 256 252 242 230 224 235 245 248 221 216 217 208 207 208 213 228 225
287 288 288 287 287 285 280 277 279 278 273 269 269 268 267 269 271 269 262 255 256 254 253 243 234 228 229 232 231 232 218 209 209 215 212 211 228 238
291 288 285 285 286 285 281 278 275 276 274 270 268 265 263 263 265 265 261 263 260 252 250 249 245 246 235 203 220 237 240 223 215 209 193 196 206 202
290 288 286 283 283 282 280 278 275 273 271 267 264 263 260 258 259 261 258 257 255 252 251 253 249 239 210 216 229 230 230 233 234 231 220 204 188 197
289 288 286 284 281 280 279 276 272 271 267 264 262 260 257 257 254 256 255 252 253 253 252 248 237 224 221 219 223 224 220 216 213 222 233 233 232 235
Height
1471 1467 1464 1461 1459 1456 1453 1450 1444 1433 1427 1429 1429 1429 1429 1427 1425 1423 1421 1420 1419 1418 1417 1417 1416 1416 1416 1416 1417 1417 1417 1418 1418 1418 1419 1419 1421 1423
1462 1459 1455 1452 1449 1447 1444 1441 1438 1431 1420 1418 1419 1419 1418 1417 1416 1414 1412 1410 1409 1408 1407 1406 1405 1405 1405 1405 1406 1407 1407 1408 1408 1409 1409 1410 1411 1412
1454 1450 1446 1444 1440 1437 1435 1432 1428 1424 1415 1408 1410 1409 1407 1406 1405 1403 1402 1400 1398 1397 1396 1395 1394 1394 1394 1395 1395 1396 1397 1398 1398 1399 1400 1400 1401 1402
1445 1441 1438 1435 1431 1428 1425 1422 1418 1415 1409 1400 1398 1398 1397 1396 1394 1392 1391 1389 1387 1386 1385 1384 1384 1384 1384 1384 1385 1385 1386 1387 1388 1389 1390 1391 1391 1392
1437 1433 1429 1426 1422 1419 1415 1412 1408 1405 1401 1395 1389 1388 1387 1386 1384 1382 1380 1379 1377 1376 1375 1374 1374 1373 1373 1374 1374 1375 1376 1377 1378 1378 1379 1380 1381 1382
1428 1424 1421 1417 1413 1410 1406 1402 1399 1395 1392 1387 1382 1379 1377 1376 1375 1373 1370 1369 1367 1366 1365 1364 1364 1363 1363 1364 1364 1365 1366 1366 1367 1368 1369 1370 1371 1372
1418 1415 1412 1408 1404 1401 1398 1394 1391 1387 1383 1379 1375 1371 1369 1368 1367 1365 1362 1359 1357 1357 1355 1354 1354 1353 1353 1354 1354 1355 1355 1356 1357 1358 1359 1360 1361 1363
1409 1405 1402 1398 1395 1392 1389 1386 1383 1380 1375 1372 1367 1364 1361 1360 1358 1357 1354 1351 1347 1348 1347 1345 1345 1343 1343 1344 1344 1345 1345 1346 1347 1348 1349 1351 1352 1353
1400 1396 1392 1389 1386 1382 1378 1375 1372 1370 1368 1364 1359 1356 1353 1351 1349 1347 1345 1342 1339 1339 1339 1335 1335 1334 1334 1335 1335 1335 1336 1337 1338 1339 1340 1342 1343 1344
1392 1388 1383 1379 1376 1373 1368 1364 1362 1359 1357 1354 1351 1347 1345 1343 1341 1338 1336 1333 1330 1330 1330 1327 1326 1326 1326 1326 1326 1327 1327 1328 1329 1331 1332 1333 1335 1336
1382 1379 1375 1370 1367 1365 1361 1356 1352 1349 1348 1345 1342 1339 1337 1335 1333 1330 1327 1325 1321 1320 1321 1319 1318 1318 1317 1317 1317 1318 1319 1320 1321 1322 1324 1325 1327 1328
1373 1369 1367 1363 1359 1357 1353 1348 1344 1340 1338 1334 1332 1329 1326 1324 1323 1322 1319 1317 1314 1312 1312 1312 1311 1311 1309 1308 1309 1310 1311 1312 1314 1315 1316 1318 1320 1321
1365 1360 1357 1354 1351 1347 1344 1340 1336 1333 1329 1325 1322 1319 1316 1314 1312 1311 1310 1309 1307 1305 1305 1305 1304 1304 1304 1303 1303 1304 1305 1306 1307 1308 1309 1311 1313 1314
1357 1352 1348 1345 1342 1338 1335 1331 1328 1325 1321 1317 1313 1310 1308 1305 1304 1302 1301 1300 1298 1298 1297 1298 1297 1297 1297 1297 1297 1297 1299 1300 1301 1302 1303 1305 1306 1307
1349 1344 1340 1337 1333 1329 1326 1323 1320 1316 1312 1309 1305 1302 1300 1298 1296 1294 1292 1291 1290 1290 1290 1290 1290 1290 1291 1291 1291 1292 1293 1294 1296 1297 1298 1299 1300 1302
1340 1335 1331 1327 1324 1320 1317 1314 1311 1308 1305 1301 1298 1295 1293 1291 1289 1287 1286 1284 1283 1282 1283 1283 1283 1284 1284 1285 1286 1286 1288 1289 1290 1292 1293 1294 1296 1297
1332 1327 1322 1318 1315 1311 1308 1305 1303 1300 1297 1295 1292 1289 1286 1284 1282 1281 1280 1278 1277 1276 1276 1277 1277 1277 1278 1279 1279 1280 1282 1283 1285 1286 1288 1289 1291 1292
1325 1319 1315 1311 1307 1304 1300 1297 1295 1293 1290 1288 1285 1282 1280 1278 1276 1275 1274 1273 1272 1271 1271 1271 1271 1272 1272 1273 1274 1275 1276 1277 1279 1281 1283 1284 1285 1287
1317 1312 1307 1304 1300 1297 1293 1290 1287 1285 1283 1281 1278 1276 1274 1272 1270 1269 1268 1267 1266 1266 1266 1266 1266 1267 1267 1267 1268 1270 1271 1272 1274 1276 1277 1279 1280 1283
1309 1304 1300 1296 1293 1289 1286 1283 1280 1278 1276 1273 1271 1269 1268 1266 1265 1263 1262 1261 1261 1260 1260 1260 1261 1261 1262 1263 1263 1264 1267 1268 1269 1270 1272 1274 1276 1278
1300 1296 1293 1289 1285 1282 1279 1276 1273 1270 1268 1266 1264 1263 1261 1260 1259 1258 1257 1256 1256 1255 1255 1255 1255 1257 1257 1258 1259 1259 1261 1263 1264 1266 1268 1269 1271 1273
1293 1289 1285 1281 1278 1275 1271 1269 1266 1263 1261 1259 1257 1256 1255 1254 1252 1252 1251 1250 1250 1249 1249 1249 1250 1251 1251 1252 1252 1253 1255 1258 1260 1261 1263 1265 1266 1268
1285 1281 1277 1273 1270 1267 1264 1261 1258 1256 1254 1252 1250 1249 1248 1247 1246 1245 1245 1244 1244 1244 1243 1243 1244 1245 1245 1246 1247 1248 1250 1252 1254 1256 1258 1260 1262 1264